| time (UTC) | temp F | wind direction | speed knots | gust knots | rain 1hr in | rain 24hr in | rain mn in | humidity % | barometer mb |
| 20260507180717 | 62 | 0.0 | 0.0 | 0.00 | 0.00 | 0.00 | 39 | 995.7 | |
| 20260507175746 | 62 | 51 | 0.9 | 1.7 | 0.00 | 0.00 | 0.00 | 42 | 995.9 |
| 20260507174716 | 62 | 25 | 1.7 | 1.7 | 0.00 | 0.00 | 0.00 | 40 | 996.0 |
| 20260507173744 | 61 | 49 | 0.9 | 1.7 | 0.00 | 0.00 | 0.00 | 46 | 996.2 |
| 20260507172745 | 61 | 27 | 1.7 | 2.6 | 0.00 | 0.00 | 0.00 | 44 | 996.5 |
| 20260507171746 | 61 | 38 | 1.7 | 4.3 | 0.00 | 0.00 | 0.00 | 48 | 996.6 |
| 20260507170715 | 60 | 22 | 0.9 | 1.7 | 0.00 | 0.00 | 0.00 | 46 | 996.9 |
| 20260507165614 | 60 | 19 | 0.9 | 0.9 | 0.00 | 0.00 | 0.00 | 48 | 997.0 |
| 20260507164615 | 60 | 236 | 1.7 | 2.6 | 0.00 | 0.00 | 0.00 | 46 | 997.1 |
| 20260507163615 | 59 | 280 | 0.9 | 0.9 | 0.00 | 0.00 | 0.00 | 50 | 997.3 |
| 20260507162528 | 59 | 29 | 4.3 | 5.2 | 0.00 | 0.00 | 0.00 | 43 | 997.4 |
| 20260507161547 | 59 | 39 | 1.7 | 2.6 | 0.00 | 0.00 | 0.00 | 44 | 997.5 |
| 20260507160553 | 59 | 339 | 1.7 | 1.7 | 0.00 | 0.00 | 0.00 | 52 | 997.6 |
| 20260507155544 | 58 | 320 | 1.7 | 2.6 | 0.00 | 0.00 | 0.00 | 50 | 997.8 |
| 20260507154605 | 58 | 74 | 2.6 | 4.3 | 0.00 | 0.00 | 0.00 | 50 | 998.0 |
| 20260507153537 | 58 | 30 | 0.9 | 0.9 | 0.00 | 0.00 | 0.00 | 47 | 998.0 |
| 20260507152414 | 58 | 340 | 1.7 | 1.7 | 0.00 | 0.00 | 0.00 | 46 | 998.2 |
| 20260507151416 | 59 | 21 | 2.6 | 2.6 | 0.00 | 0.00 | 0.00 | 44 | 998.3 |
| 20260507150445 | 59 | 31 | 1.7 | 2.6 | 0.00 | 0.00 | 0.00 | 41 | 998.4 |
| 20260507145505 | 60 | 121 | 2.6 | 4.3 | 0.00 | 0.00 | 0.00 | 41 | 998.8 |
| 20260507144443 | 59 | 45 | 1.7 | 2.6 | 0.00 | 0.00 | 0.00 | 46 | 998.9 |
| 20260507143445 | 59 | 355 | 1.7 | 2.6 | 0.00 | 0.00 | 0.00 | 43 | 998.9 |
| 20260507142455 | 59 | 34 | 1.7 | 2.6 | 0.00 | 0.00 | 0.00 | 45 | 999.0 |
| 20260507141414 | 60 | 334 | 0.9 | 1.7 | 0.00 | 0.00 | 0.00 | 51 | 999.1 |
| 20260507140344 | 58 | 3 | 1.7 | 4.3 | 0.00 | 0.00 | 0.00 | 50 | 999.3 |
| 20260507135345 | 57 | 5 | 0.9 | 1.7 | 0.00 | 0.00 | 0.00 | 50 | 999.4 |
| 20260507134335 | 56 | 20 | 1.7 | 2.6 | 0.00 | 0.00 | 0.00 | 49 | 999.4 |
| 20260507133246 | 55 | 29 | 1.7 | 1.7 | 0.00 | 0.00 | 0.00 | 51 | 999.6 |
| 20260507132215 | 54 | 13 | 1.7 | 1.7 | 0.00 | 0.00 | 0.00 | 52 | 999.5 |
| 20260507131144 | 54 | 21 | 0.9 | 0.9 | 0.00 | 0.00 | 0.00 | 53 | 999.7 |
| 20260507130115 | 54 | 9 | 1.7 | 1.7 | 0.00 | 0.00 | 0.00 | 54 | 999.8 |
| 20260507125043 | 53 | 348 | 0.9 | 0.9 | 0.00 | 0.00 | 0.00 | 56 | 999.9 |
| 20260507124015 | 53 | 0.0 | 0.0 | 0.00 | 0.00 | 0.00 | 57 | 999.9 | |
| 20260507122945 | 53 | 350 | 0.9 | 1.7 | 0.00 | 0.00 | 0.00 | 54 | 999.6 |
| 20260507121915 | 53 | 0.0 | 0.0 | 0.00 | 0.00 | 0.00 | 56 | 999.6 | |
| 20260507120845 | 53 | 3 | 1.7 | 2.6 | 0.00 | 0.00 | 0.00 | 58 | 999.6 |
| 20260507115835 | 53 | 342 | 1.7 | 2.6 | 0.00 | 0.00 | 0.00 | 58 | 999.5 |
| 20260507114744 | 52 | 22 | 0.9 | 1.7 | 0.00 | 0.00 | 0.00 | 58 | 999.6 |
| 20260507113717 | 52 | 2 | 0.0 | 0.9 | 0.00 | 0.00 | 0.00 | 59 | 999.5 |
| 20260507112644 | 52 | 349 | 0.9 | 0.9 | 0.00 | 0.00 | 0.00 | 56 | 999.5 |
| 20260507111614 | 53 | 0.0 | 0.0 | 0.00 | 0.00 | 0.00 | 58 | 999.4 | |
| 20260507110546 | 53 | 0.0 | 0.0 | 0.00 | 0.00 | 0.00 | 59 | 999.3 | |
| 20260507105515 | 53 | 0.0 | 0.0 | 0.00 | 0.00 | 0.00 | 60 | 999.1 | |
| 20260507104445 | 53 | 0.0 | 0.0 | 0.00 | 0.00 | 0.00 | 64 | 999.2 | |
| 20260507103414 | 52 | 0.0 | 0.0 | 0.00 | 0.00 | 0.00 | 60 | 999.0 | |
| 20260507102344 | 52 | 355 | 0.0 | 0.9 | 0.00 | 0.00 | 0.00 | 60 | 998.9 |
| 20260507101335 | 52 | 355 | 0.9 | 0.9 | 0.00 | 0.00 | 0.00 | 62 | 998.9 |
| 20260507100246 | 52 | 355 | 0.9 | 1.7 | 0.00 | 0.00 | 0.00 | 63 | 998.5 |
| 20260507095214 | 52 | 355 | 0.0 | 0.9 | 0.00 | 0.00 | 0.00 | 61 | 998.4 |
| 20260507094146 | 53 | 9 | 1.7 | 4.3 | 0.00 | 0.00 | 0.00 | 61 | 998.4 |
| 20260507093114 | 53 | 6 | 0.9 | 0.9 | 0.00 | 0.00 | 0.00 | 60 | 998.5 |
| 20260507092045 | 53 | 7 | 1.7 | 2.6 | 0.00 | 0.00 | 0.00 | 61 | 998.5 |
| 20260507091014 | 53 | 342 | 0.9 | 0.9 | 0.00 | 0.00 | 0.00 | 59 | 998.7 |
| 20260507090005 | 53 | 5 | 0.9 | 1.7 | 0.00 | 0.00 | 0.00 | 60 | 998.4 |
| 20260507084915 | 53 | 26 | 0.0 | 0.9 | 0.00 | 0.00 | 0.00 | 60 | 998.6 |
| 20260507083843 | 53 | 30 | 0.9 | 0.9 | 0.00 | 0.00 | 0.00 | 60 | 998.5 |
| 20260507082815 | 53 | 22 | 0.9 | 1.7 | 0.00 | 0.00 | 0.00 | 63 | 998.3 |
| 20260507081745 | 54 | 353 | 0.9 | 0.9 | 0.00 | 0.00 | 0.00 | 66 | 998.3 |
| 20260507080734 | 54 | 354 | 0.9 | 1.7 | 0.00 | 0.00 | 0.00 | 67 | 998.1 |
| 20260507075644 | 54 | 349 | 0.9 | 1.7 | 0.00 | 0.00 | 0.00 | 69 | 997.9 |
| 20260507074615 | 54 | 5 | 0.9 | 1.7 | 0.00 | 0.00 | 0.00 | 68 | 997.9 |
| 20260507073555 | 54 | 7 | 0.9 | 1.7 | 0.00 | 0.00 | 0.00 | 68 | 997.6 |
| 20260507072415 | 54 | 356 | 1.7 | 1.7 | 0.00 | 0.00 | 0.00 | 68 | 997.8 |
| 20260507071415 | 54 | 16 | 0.9 | 1.7 | 0.00 | 0.00 | 0.00 | 69 | 997.9 |
| 20260507070416 | 54 | 20 | 1.7 | 2.6 | 0.00 | 0.00 | 0.00 | 70 | 997.9 |
| 20260507065437 | 55 | 342 | 0.9 | 1.7 | 0.00 | 0.00 | 0.00 | 70 | 998.0 |
| 20260507064415 | 55 | 44 | 0.9 | 1.7 | 0.00 | 0.00 | 0.00 | 70 | 998.0 |
| 20260507063316 | 55 | 3 | 0.9 | 0.9 | 0.00 | 0.00 | 0.00 | 69 | 998.2 |
| 20260507062315 | 55 | 0.0 | 0.0 | 0.00 | 0.00 | 0.00 | 71 | 998.1 | |
| 20260507061334 | 55 | 26 | 0.9 | 1.7 | 0.00 | 0.00 | 0.00 | 70 | 998.1 |
| 20260507060318 | 55 | 0.0 | 0.0 | 0.00 | 0.00 | 0.00 | 69 | 998.4 | |
| 20260507055314 | 55 | 32 | 0.9 | 0.9 | 0.00 | 0.00 | 0.00 | 70 | 998.3 |
| 20260507054216 | 55 | 15 | 0.9 | 0.9 | 0.00 | 0.00 | 0.00 | 70 | 998.1 |
| 20260507053237 | 55 | 355 | 0.9 | 0.9 | 0.00 | 0.00 | 0.00 | 72 | 998.0 |
| 20260507052234 | 55 | 353 | 1.7 | 2.6 | 0.00 | 0.00 | 0.00 | 72 | 997.9 |
| 20260507051114 | 55 | 332 | 0.9 | 0.9 | 0.00 | 0.00 | 0.00 | 72 | 998.1 |
| 20260507050205 | 55 | 18 | 0.9 | 1.7 | 0.00 | 0.00 | 0.00 | 72 | 997.9 |
| 20260507045145 | 56 | 31 | 0.9 | 0.9 | 0.00 | 0.00 | 0.00 | 73 | 997.9 |
| 20260507044145 | 56 | 3 | 1.7 | 1.7 | 0.00 | 0.00 | 0.00 | 72 | 997.7 |
| 20260507043122 | 56 | 25 | 1.7 | 2.6 | 0.00 | 0.00 | 0.00 | 74 | 997.9 |
| 20260507042144 | 56 | 19 | 0.0 | 0.9 | 0.00 | 0.00 | 0.00 | 75 | 997.8 |
| 20260507041115 | 56 | 24 | 1.7 | 2.6 | 0.00 | 0.00 | 0.00 | 76 | 997.8 |
| 20260507040053 | 56 | 0.0 | 0.0 | 0.00 | 0.00 | 0.00 | 76 | 997.9 | |
| 20260507035047 | 56 | 42 | 0.9 | 0.9 | 0.00 | 0.00 | 0.00 | 76 | 998.2 |
| 20260507034045 | 56 | 32 | 0.9 | 0.9 | 0.00 | 0.00 | 0.00 | 76 | 997.8 |
| 20260507033016 | 57 | 132 | 1.7 | 1.7 | 0.00 | 0.00 | 0.00 | 75 | 997.4 |
| 20260507031918 | 57 | 84 | 0.9 | 0.9 | 0.00 | 0.00 | 0.00 | 75 | 997.7 |
| 20260507030814 | 57 | 78 | 0.0 | 0.9 | 0.00 | 0.00 | 0.00 | 75 | 997.9 |
| 20260507025715 | 57 | 4 | 0.0 | 0.9 | 0.00 | 0.00 | 0.00 | 76 | 997.8 |
| 20260507024705 | 57 | 68 | 0.9 | 1.7 | 0.00 | 0.00 | 0.00 | 78 | 998.0 |
| 20260507023616 | 57 | 51 | 1.7 | 1.7 | 0.00 | 0.00 | 0.00 | 78 | 997.6 |
| 20260507022515 | 57 | 346 | 1.7 | 1.7 | 0.00 | 0.00 | 0.00 | 78 | 997.1 |
| 20260507021517 | 57 | 88 | 3.5 | 5.2 | 0.00 | 0.00 | 0.00 | 78 | 997.1 |
| 20260507020447 | 57 | 29 | 1.7 | 4.3 | 0.00 | 0.00 | 0.00 | 79 | 996.9 |
| 20260507015444 | 58 | 5 | 1.7 | 2.6 | 0.00 | 0.00 | 0.00 | 79 | 997.0 |
| 20260507014417 | 58 | 321 | 1.7 | 1.7 | 0.00 | 0.00 | 0.00 | 78 | 996.8 |
| 20260507013345 | 58 | 345 | 2.6 | 4.3 | 0.00 | 0.00 | 0.00 | 77 | 997.0 |
| 20260507012315 | 59 | 6 | 2.6 | 2.6 | 0.00 | 0.00 | 0.00 | 76 | 996.8 |
| 20260507011215 | 59 | 14 | 2.6 | 2.6 | 0.00 | 0.00 | 0.00 | 76 | 996.8 |
| 20260507010216 | 60 | 27 | 0.0 | 0.9 | 0.00 | 0.00 | 0.00 | 76 | 996.6 |
| 20260507005246 | 60 | 51 | 1.7 | 2.6 | 0.00 | 0.00 | 0.00 | 76 | 996.8 |
| 20260507004244 | 60 | 358 | 0.9 | 1.7 | 0.00 | 0.00 | 0.00 | 75 | 997.4 |
| 20260507003215 | 60 | 303 | 0.9 | 0.9 | 0.00 | 0.00 | 0.00 | 75 | 996.8 |
| 20260507002246 | 61 | 340 | 2.6 | 5.2 | 0.00 | 0.00 | 0.00 | 75 | 996.4 |
| 20260507001213 | 61 | 18 | 0.9 | 1.7 | 0.00 | 0.00 | 0.00 | 77 | 996.4 |
| 20260507000212 | 61 | 329 | 0.9 | 1.7 | 0.00 | 0.00 | 0.00 | 78 | 996.3 |
| 20260506235116 | 62 | 323 | 1.7 | 1.7 | 0.00 | 0.00 | 0.00 | 76 | 995.9 |
| 20260506234045 | 62 | 345 | 0.9 | 1.7 | 0.00 | 0.00 | 0.00 | 78 | 995.9 |
| 20260506233027 | 62 | 359 | 0.9 | 1.7 | 0.00 | 0.00 | 0.00 | 79 | 995.7 |
| 20260506231947 | 62 | 351 | 0.9 | 2.6 | 0.00 | 0.00 | 0.00 | 80 | 995.3 |
| 20260506231017 | 63 | 304 | 0.9 | 0.9 | 0.00 | 0.00 | 0.00 | 80 | 995.3 |
| 20260506225847 | 63 | 333 | 0.9 | 1.7 | 0.00 | 0.00 | 0.00 | 83 | 995.2 |
| 20260506224816 | 63 | 349 | 1.7 | 2.6 | 0.00 | 0.00 | 0.00 | 85 | 995.4 |
| 20260506223805 | 64 | 353 | 0.9 | 1.7 | 0.00 | 0.00 | 0.00 | 84 | 995.4 |
| 20260506222714 | 64 | 1 | 0.9 | 0.9 | 0.00 | 0.00 | 0.00 | 84 | 995.3 |
| 20260506221646 | 64 | 64 | 0.0 | 0.9 | 0.00 | 0.00 | 0.00 | 83 | 994.9 |
| 20260506220637 | 64 | 64 | 0.9 | 1.7 | 0.00 | 0.00 | 0.00 | 85 | 994.9 |
| 20260506215545 | 65 | 68 | 0.0 | 0.9 | 0.00 | 0.00 | 0.00 | 86 | 995.0 |
| 20260506214514 | 65 | 68 | 0.9 | 0.9 | 0.00 | 0.00 | 0.00 | 87 | 994.7 |
| 20260506213444 | 65 | 71 | 1.7 | 1.7 | 0.00 | 0.00 | 0.00 | 88 | 994.5 |
| 20260506212414 | 65 | 75 | 0.9 | 1.7 | 0.00 | 0.00 | 0.00 | 88 | 994.7 |
| 20260506211345 | 65 | 75 | 0.9 | 0.9 | 0.00 | 0.00 | 0.00 | 88 | 994.6 |
| 20260506210336 | 66 | 96 | 0.0 | 0.9 | 0.00 | 0.00 | 0.00 | 87 | 994.4 |
| 20260506205245 | 66 | 0.0 | 0.0 | 0.00 | 0.00 | 0.00 | 85 | 994.0 | |
| 20260506204215 | 67 | 137 | 0.0 | 0.9 | 0.00 | 0.00 | 0.00 | 85 | 993.8 |
| 20260506203256 | 67 | 137 | 0.9 | 0.9 | 0.00 | 0.00 | 0.00 | 84 | 993.8 |
| 20260506202245 | 67 | 137 | 0.9 | 0.9 | 0.00 | 0.00 | 0.00 | 84 | 993.8 |
| 20260506201215 | 67 | 137 | 0.9 | 0.9 | 0.00 | 0.00 | 0.00 | 83 | 994.0 |
| 20260506200144 | 67 | 140 | 0.9 | 0.9 | 0.00 | 0.00 | 0.00 | 83 | 993.8 |
| 20260506195158 | 67 | 0.0 | 0.0 | 0.00 | 0.00 | 0.00 | 83 | 993.8 | |
| 20260506194045 | 67 | 162 | 0.9 | 0.9 | 0.00 | 0.00 | 0.00 | 84 | 993.7 |
| 20260506193014 | 67 | 0.0 | 0.0 | 0.00 | 0.00 | 0.00 | 83 | 993.8 | |
| 20260506191945 | 67 | 162 | 0.9 | 0.9 | 0.00 | 0.00 | 0.00 | 83 | 994.1 |
| 20260506190916 | 67 | 202 | 0.9 | 1.7 | 0.00 | 0.00 | 0.00 | 82 | 993.7 |
| 20260506185844 | 68 | 225 | 2.6 | 4.3 | 0.00 | 0.00 | 0.00 | 83 | 993.8 |
| 20260506184815 | 69 | 234 | 1.7 | 1.7 | 0.00 | 0.00 | 0.00 | 83 | 994.0 |
| 20260506183744 | 68 | 243 | 2.6 | 4.3 | 0.00 | 0.00 | 0.00 | 86 | 994.0 |
| 20260506182714 | 66 | 257 | 0.9 | 0.9 | 0.00 | 0.00 | 0.00 | 85 | 994.4 |
| 20260506181645 | 66 | 243 | 1.7 | 4.3 | 0.00 | 0.00 | 0.00 | 86 | 994.5 |